Wind_Speed
13 14 15 15 15 16 16 17 18 19 19 20 20 20 21 22 22 23 23 25 25 25 26 26 27 27 28 29 29 31 31 31 31 32 32 32 32 33 34 35 34 34 34 34
12 12 13 14 14 14 14 15 16 17 17 18 18 18 19 20 21 22 23 23 24 25 26 26 26 27 28 29 30 31 32 32 32 32 32 32 33 33 33 34 34 33 33 34
11 12 12 12 12 12 12 13 14 15 16 17 17 18 18 19 21 22 22 23 24 24 25 27 27 28 29 30 31 31 32 32 32 32 33 33 34 34 34 33 33 33 33 32
11 11 11 11 11 11 12 12 12 13 13 15 16 17 18 20 20 21 22 23 23 24 24 26 27 28 29 30 31 31 32 33 33 33 34 34 34 33 33 33 33 33 33 34
9 9 10 10 10 10 10 10 10 10 12 13 14 15 16 18 20 21 22 23 24 25 25 26 27 27 28 29 30 30 32 33 33 34 34 34 33 33 33 33 33 34 35 35
8 8 8 8 8 9 9 9 9 10 11 12 12 14 14 15 18 19 21 22 23 23 24 25 26 26 27 28 29 30 30 31 32 32 32 33 33 32 33 34 35 35 36 37
6 7 7 7 7 7 8 9 9 10 11 11 11 13 13 14 16 18 19 21 22 22 23 24 25 26 27 28 30 31 32 32 32 32 33 33 33 34 35 36 37 37 38 39
4 5 5 6 6 7 8 9 10 11 11 11 12 13 13 14 15 17 18 19 20 22 23 24 25 27 28 29 30 31 32 32 32 33 34 35 35 36 37 38 39 39 40 42
3 4 4 5 6 7 8 9 10 11 12 12 13 13 13 14 15 17 18 19 20 21 22 23 24 25 27 28 29 29 30 30 31 32 34 35 37 37 38 40 41 42 43 44
3 4 4 5 7 7 8 9 11 11 12 13 13 14 14 16 17 17 18 19 20 20 21 21 23 24 26 27 28 29 31 32 32 33 34 35 37 38 39 40 41 43 44 45
4 5 6 7 8 9 9 11 12 13 14 14 15 14 15 16 17 17 18 19 19 19 21 22 24 25 26 27 28 29 31 32 33 34 35 36 37 39 40 41 42 44 45 45
6 7 8 9 10 10 11 12 13 14 15 16 16 15 16 17 18 18 19 19 20 21 22 23 24 25 26 27 29 30 32 33 35 36 37 38 39 41 42 43 44 45 46 46
9 10 11 11 12 13 13 14 15 16 17 17 17 17 18 19 19 19 20 20 21 22 22 23 24 26 27 28 30 31 33 35 37 38 39 40 41 43 43 44 46 46 47 47
12 12 13 14 15 15 14 15 16 17 18 18 17 18 19 20 20 20 20 21 22 23 23 24 26 27 29 30 32 33 35 36 37 39 41 42 43 43 44 46 47 48 48 48
15 15 15 15 15 16 16 17 18 18 19 20 19 20 21 21 21 21 22 23 24 26 26 27 28 30 31 33 34 36 37 38 39 41 42 43 44 45 46 47 48 48 49 49
16 17 17 16 17 18 18 19 20 21 21 21 21 21 23 23 24 24 25 26 27 28 30 31 32 33 34 36 37 39 40 40 41 42 43 44 45 47 48 49 49 50 50 50
18 19 19 19 20 20 19 20 22 22 23 24 24 24 25 25 26 27 28 29 30 31 32 33 35 36 37 38 39 40 41 42 43 44 44 46 47 48 49 50 50 50 51 51
21 21 22 22 22 22 22 22 23 24 25 26 26 26 27 27 28 29 30 31 33 33 34 35 37 38 39 40 41 42 42 43 44 45 46 47 48 49 49 50 50 50 50 51
23 24 25 25 25 24 24 25 25 26 26 27 28 28 29 30 31 32 33 34 35 36 37 38 39 40 41 42 42 43 44 45 46 47 48 49 50 50 50 50 51 51 51 51
26 26 27 27 28 27 27 27 28 29 29 29 30 31 32 33 33 34 35 35 36 38 39 40 41 42 43 44 44 45 46 47 48 49 50 51 51 52 52 52 52 51 51 51
29 29 30 30 31 30 30 30 31 31 32 32 33 33 34 34 36 37 37 38 39 40 41 42 43 44 45 46 47 48 48 49 50 51 51 52 53 53 53 53 52 51 50 50
31 32 32 32 33 32 32 33 33 34 35 36 36 36 37 37 38 39 40 41 42 42 43 44 45 46 47 48 49 50 50 51 51 52 53 53 53 53 53 52 51 51 50 49
33 33 34 34 34 34 35 35 36 37 38 38 38 38 39 40 40 41 41 42 43 44 45 47 47 48 49 49 50 51 51 52 53 53 53 53 53 53 52 51 50 50 49 48
35 35 36 36 35 36 38 39 39 40 41 41 41 41 41 41 42 43 43 44 45 46 47 48 49 50 50 51 51 52 52 53 53 53 53 53 52 52 51 50 49 48 47 47
36 37 38 38 38 39 40 41 41 42 42 42 43 43 43 43 44 44 45 46 47 47 49 50 50 51 51 52 52 52 52 52 53 52 52 51 51 50 49 48 48 47 46 46
37 39 40 41 41 42 42 43 44 44 44 44 44 44 45 45 46 46 47 48 49 49 50 51 51 51 51 51 51 51 51 52 52 51 51 50 50 50 49 48 47 46 45 44
Wind_Direction
172 176 178 183 189 197 204 211 215 219 220 224 226 230 232 230 232 233 234 237 237 238 240 243 246 250 253 255 257 261 262 265 267 269 271 273 275 276 277 278 280 281 281 282
166 173 176 181 187 192 201 209 213 218 222 225 227 229 230 231 232 233 235 237 238 240 242 244 247 251 255 257 259 262 263 265 267 270 272 275 277 279 280 281 281 281 282 283
157 164 168 176 185 190 196 205 212 219 226 229 231 229 228 232 234 235 236 238 240 242 245 246 249 253 256 258 260 262 264 266 268 270 273 276 280 280 280 281 282 282 283 283
152 159 166 175 184 190 195 202 210 220 227 228 230 231 230 234 236 238 240 242 243 244 247 249 252 255 257 259 262 263 265 267 269 272 275 277 280 280 281 282 283 283 284 285
149 160 169 178 186 192 198 204 210 218 225 229 232 235 235 238 239 242 242 244 246 247 249 252 254 257 259 261 264 265 268 269 271 273 275 277 279 279 280 281 283 284 285 285
150 159 170 181 189 197 203 207 213 219 226 233 237 241 239 242 243 244 245 246 249 250 252 254 256 258 261 263 265 267 270 270 271 274 276 278 279 280 281 282 283 284 285 286
150 162 176 189 198 205 213 219 223 228 234 239 241 247 250 248 248 247 248 250 251 253 254 256 257 261 263 266 267 268 270 272 274 275 277 279 279 280 282 283 283 284 285 286
165 174 189 206 219 223 228 233 238 240 241 245 246 252 257 253 252 252 252 252 254 257 260 260 261 263 265 267 270 271 272 273 275 276 278 279 280 281 282 283 285 285 286 286
200 213 221 226 233 239 238 242 248 250 250 252 253 256 258 256 255 254 255 256 258 261 262 263 266 266 266 269 272 273 275 276 276 278 279 279 281 282 283 285 286 287 288 288
244 246 250 249 248 249 250 252 254 257 260 261 262 264 264 260 259 258 259 261 263 264 265 268 270 270 270 273 274 275 277 277 278 280 282 282 282 283 285 286 287 288 289 289
265 266 267 266 262 260 261 261 264 266 266 269 271 272 271 268 266 266 267 268 268 268 268 269 272 273 274 275 277 280 281 280 281 283 284 285 286 287 287 288 289 290 290 290
277 277 276 275 273 271 271 270 270 272 272 274 276 277 274 272 269 270 273 274 272 271 272 273 275 276 278 279 280 282 283 284 285 286 286 287 287 288 289 289 290 291 291 291
282 283 282 279 278 277 277 277 277 275 276 277 279 280 278 276 274 273 274 274 274 274 275 277 279 280 282 282 284 286 286 287 287 287 288 289 289 289 290 291 291 291 291 291
285 286 287 287 283 281 281 282 281 280 280 280 281 280 279 278 278 276 275 275 275 277 278 279 281 282 284 285 287 288 289 289 289 289 289 290 290 291 292 292 292 292 291 291
286 287 287 287 285 284 284 283 282 282 282 282 282 281 281 280 280 279 278 278 278 279 281 282 282 284 286 287 288 289 290 290 291 291 291 291 291 292 292 292 292 292 292 291
287 286 285 286 286 285 284 284 283 284 284 284 284 284 282 283 282 282 281 281 281 281 282 284 285 286 288 289 289 290 290 291 292 292 292 293 293 293 293 293 292 292 292 291
287 287 286 286 285 285 285 284 285 285 285 285 286 285 283 283 282 282 283 283 283 284 285 286 287 288 288 289 290 291 292 292 293 293 294 294 294 294 293 293 293 292 292 291
285 286 286 286 285 284 286 285 285 285 285 285 285 284 283 283 283 284 284 284 285 286 287 288 289 290 290 291 291 292 292 292 293 294 295 295 295 295 295 294 293 293 292 291
284 285 286 286 285 284 285 286 286 285 285 285 284 283 284 284 284 285 285 286 286 287 288 288 289 290 291 291 292 293 292 293 294 294 295 295 295 295 295 295 294 293 292 292
284 284 285 286 287 287 288 286 285 285 286 285 285 286 286 286 285 286 287 287 288 288 288 289 290 291 291 292 292 292 293 294 294 295 295 295 295 295 295 295 294 293 293 292
284 285 286 286 287 288 289 288 287 287 287 287 288 288 287 287 287 287 287 288 288 289 290 290 291 291 292 292 292 293 293 294 294 295 295 295 295 295 295 295 294 294 293 293
283 283 284 285 286 288 287 287 287 286 286 287 288 287 287 286 286 286 287 288 289 290 291 291 291 292 292 292 292 293 293 293 293 294 295 295 295 295 295 294 294 294 293 293
281 282 283 284 286 286 286 286 286 286 287 288 287 287 287 287 287 288 288 288 289 290 291 291 292 292 292 292 292 293 294 294 294 295 295 295 295 295 295 295 294 293 293 292
279 280 281 282 283 283 284 284 285 286 287 288 288 288 288 288 288 289 289 290 290 290 291 292 292 292 292 293 293 294 294 295 295 295 295 295 295 295 295 294 294 293 292 291
279 280 281 281 282 281 282 283 285 287 288 288 288 288 288 288 288 289 289 290 291 291 292 292 293 293 293 293 294 294 295 295 295 295 295 295 295 295 294 294 293 293 292 291
279 280 280 280 280 281 282 283 284 286 287 287 287 287 287 287 288 288 289 290 291 292 292 292 293 293 294 294 294 294 295 295 295 295 295 295 295 294 294 293 292 292 292 291
Height
5723 5727 5730 5733 5736 5739 5742 5745 5747 5750 5752 5755 5757 5760 5762 5765 5767 5770 5772 5775 5777 5780 5781 5783 5785 5786 5787 5788 5789 5790 5790 5790 5790 5789 5788 5787 5787 5786 5785 5784 5783 5781 5780 5778
5726 5728 5731 5733 5736 5738 5741 5743 5746 5748 5750 5752 5755 5757 5759 5761 5764 5766 5768 5770 5772 5774 5776 5778 5779 5780 5781 5782 5783 5783 5783 5783 5783 5782 5781 5780 5779 5778 5777 5776 5775 5773 5772 5770
5728 5730 5732 5734 5736 5739 5741 5743 5745 5746 5748 5750 5752 5754 5757 5758 5760 5762 5763 5765 5767 5769 5771 5772 5774 5774 5775 5776 5776 5776 5776 5776 5776 5775 5774 5773 5772 5771 5770 5768 5767 5766 5764 5762
5729 5731 5733 5735 5737 5738 5740 5742 5743 5745 5746 5748 5750 5752 5754 5755 5756 5758 5759 5760 5762 5764 5765 5766 5767 5768 5769 5769 5769 5769 5769 5769 5769 5768 5767 5766 5765 5763 5762 5761 5759 5758 5756 5755
5731 5732 5734 5736 5737 5738 5740 5741 5742 5743 5745 5746 5747 5749 5751 5751 5752 5754 5755 5756 5757 5758 5759 5760 5761 5762 5762 5762 5763 5763 5762 5762 5761 5761 5760 5758 5757 5756 5754 5753 5752 5750 5749 5747
5733 5734 5735 5736 5737 5738 5739 5741 5741 5742 5743 5745 5745 5746 5748 5748 5748 5749 5750 5751 5752 5753 5754 5754 5755 5756 5756 5756 5756 5756 5755 5754 5754 5753 5752 5750 5749 5748 5747 5745 5744 5742 5740 5738
5734 5735 5736 5737 5737 5739 5739 5740 5741 5741 5741 5742 5743 5743 5745 5744 5744 5745 5745 5746 5747 5747 5748 5749 5749 5750 5750 5750 5749 5749 5748 5747 5746 5745 5744 5742 5741 5740 5738 5736 5735 5733 5731 5729
5735 5736 5736 5737 5738 5738 5738 5739 5740 5740 5740 5740 5740 5740 5742 5741 5741 5741 5741 5742 5742 5742 5742 5743 5743 5743 5743 5743 5742 5741 5740 5739 5738 5737 5735 5734 5732 5731 5729 5727 5725 5723 5721 5718
5736 5736 5736 5736 5736 5737 5737 5737 5737 5737 5737 5737 5737 5738 5738 5737 5737 5737 5737 5737 5737 5737 5737 5737 5737 5737 5736 5736 5735 5734 5732 5731 5730 5728 5727 5725 5723 5721 5720 5718 5715 5713 5710 5708
5735 5736 5735 5735 5735 5735 5735 5735 5735 5735 5734 5734 5734 5734 5735 5733 5733 5733 5733 5732 5732 5732 5731 5731 5730 5730 5730 5729 5728 5727 5726 5724 5722 5720 5718 5716 5714 5712 5710 5708 5705 5702 5699 5696
5734 5735 5735 5734 5733 5733 5733 5733 5732 5731 5731 5731 5730 5733 5730 5729 5729 5728 5728 5727 5727 5726 5725 5725 5724 5724 5723 5722 5721 5719 5718 5716 5714 5712 5709 5707 5705 5702 5700 5697 5694 5691 5688 5685
5733 5733 5732 5732 5731 5730 5730 5729 5729 5729 5728 5727 5726 5730 5725 5724 5723 5723 5723 5722 5721 5720 5720 5719 5718 5717 5716 5714 5713 5711 5709 5707 5705 5703 5700 5698 5695 5692 5689 5686 5683 5680 5676 5673
5731 5731 5730 5729 5730 5728 5726 5725 5725 5724 5723 5722 5722 5725 5720 5719 5718 5718 5717 5716 5715 5714 5713 5712 5711 5710 5708 5707 5705 5703 5701 5698 5696 5693 5691 5688 5685 5682 5678 5675 5672 5668 5664 5661
5728 5727 5727 5726 5724 5723 5723 5722 5720 5719 5718 5718 5717 5717 5715 5713 5713 5712 5711 5710 5709 5708 5706 5705 5704 5702 5700 5699 5697 5694 5692 5689 5686 5683 5680 5677 5674 5670 5667 5663 5660 5656 5652 5648
5723 5723 5722 5721 5719 5719 5718 5717 5715 5714 5713 5713 5712 5711 5709 5707 5707 5706 5705 5703 5702 5701 5699 5698 5696 5694 5692 5690 5687 5685 5682 5679 5676 5673 5669 5666 5662 5659 5655 5651 5647 5643 5639 5635
5719 5718 5717 5717 5715 5714 5713 5712 5710 5709 5708 5707 5706 5705 5703 5701 5700 5699 5698 5696 5694 5693 5691 5689 5687 5685 5682 5680 5677 5674 5671 5668 5665 5661 5658 5654 5650 5647 5643 5639 5634 5630 5626 5621
5714 5713 5712 5712 5710 5708 5708 5707 5705 5703 5702 5701 5699 5699 5696 5695 5693 5691 5690 5688 5686 5684 5682 5680 5677 5675 5672 5669 5666 5663 5660 5657 5653 5649 5646 5642 5638 5634 5630 5625 5621 5616 5612 5607
5709 5707 5706 5705 5704 5703 5704 5700 5698 5697 5695 5693 5692 5690 5688 5687 5685 5683 5681 5679 5677 5675 5672 5670 5667 5664 5661 5658 5655 5652 5648 5645 5641 5637 5633 5629 5625 5621 5616 5611 5607 5602 5598 5593
5702 5700 5699 5697 5696 5695 5696 5693 5690 5689 5687 5685 5683 5682 5680 5678 5676 5674 5672 5669 5667 5664 5662 5659 5656 5653 5650 5646 5643 5640 5636 5632 5628 5625 5620 5616 5611 5607 5603 5598 5593 5588 5584 5579
5695 5693 5692 5689 5687 5687 5688 5685 5682 5681 5679 5677 5675 5673 5671 5669 5667 5665 5662 5659 5656 5653 5650 5647 5644 5641 5638 5634 5630 5627 5623 5619 5615 5611 5607 5602 5597 5593 5588 5584 5579 5574 5569 5565
5686 5684 5683 5681 5678 5678 5678 5675 5673 5673 5671 5668 5665 5663 5661 5658 5656 5654 5650 5648 5645 5642 5639 5635 5632 5628 5625 5621 5617 5613 5609 5606 5601 5597 5592 5588 5583 5578 5573 5569 5564 5559 5555 5551
5677 5675 5674 5672 5670 5671 5668 5665 5664 5662 5659 5657 5655 5652 5650 5647 5644 5642 5639 5636 5633 5629 5626 5622 5619 5615 5611 5607 5603 5599 5595 5591 5587 5582 5578 5573 5568 5563 5558 5554 5549 5545 5540 5537
5667 5666 5664 5663 5663 5660 5657 5654 5652 5650 5648 5646 5644 5641 5639 5636 5633 5630 5627 5624 5620 5617 5613 5610 5606 5602 5598 5593 5589 5585 5581 5576 5572 5567 5562 5558 5553 5548 5543 5539 5534 5530 5526 5522
5657 5655 5653 5651 5651 5648 5645 5642 5641 5639 5637 5634 5632 5629 5626 5623 5621 5618 5615 5611 5608 5604 5600 5596 5592 5588 5584 5579 5574 5570 5566 5561 5557 5552 5547 5542 5538 5534 5529 5524 5520 5516 5512 5508
5646 5643 5641 5639 5639 5635 5633 5631 5629 5627 5624 5622 5619 5617 5614 5611 5608 5605 5601 5598 5594 5590 5586 5582 5578 5574 5569 5565 5560 5555 5550 5546 5541 5537 5532 5527 5523 5518 5514 5510 5506 5502 5498 5494
5634 5631 5628 5627 5625 5622 5622 5619 5617 5614 5612 5609 5607 5604 5601 5597 5594 5591 5587 5584 5580 5576 5572 5567 5563 5559 5554 5550 5545 5540 5535 5530 5526 5522 5517 5512 5508 5504 5500 5496 5493 5488 5484 5481